Location: M?digepalle
(16.1753°N, 80.3496°E)
Time: 08:43:59
(UTC+00:00)

deb Chang Zheng 4 - Pass Details

Date: 29 October 2020
Orbit: 602 x 625 km, 98.6° (Epoch: 27 November)

Event Time Altitude Azimuth Distance (km) Brightness Sun altitude
Rises 23:26:54 0° 1° (N) 2,856 6.9 -16.8°
Reaches altitude 10° 23:29:09 10° 354° (N) 1,955 6.0 -16.3°
Maximum altitude 23:33:09 41° 284° (WNW) 883 3.8 -15.4°
Drops below altitude 10° 23:37:10 10° 214° (SSW) 1,966 5.9 -14.4°
Sets 23:39:26 0° 207° (SSW) 2,874 6.8 -13.9°
